OpenBCM V1.08-3-g9b42 (Linux)

Packet Radio Mailbox

OK0NBR

[Sao_Jose_dos_Campo]

 Login: GUEST





  
I0OJJ  > KEPS     22.11.25 04:03l 308 Lines 14709 Bytes #203 (0) @ AMSAT
BID : ORB25326.1
Read: GUEST
Subj: 2Line Orbital Elements 25326.AMSAT
Path: OK0NBR<IW0QNL<HB9ON<DK0WUE<DB0RKB<DB0FHN<OE2XZR<OE6XPE<UA6ADV<CX2SA<
      EA2RCF<I0OJJ
Sent: 251122/0021z @:I0OJJ.ITA.EU [Rome] obcm1.08-11-2-gbfe9
From: I0OJJ @ I0OJJ.ITA.EU (Gustavo)
To:   KEPS @ AMSAT
X-Info: This message was generated automatically


QST de W1STR

AMSAT Orbital Elements for Amateur Satellites in TLE Format
From Orbital Analysis Office
New England Sci-Tech STEM Education Center
Natick MA November 22, 2025
To all radio amateurs


These element sets describe the orbits of various satellites 
in use by the amateur radio community. For details see:
www.amsat.org/keplerian-elements-formats/

A daily update of element sets is available at:
www.amsat.org/tle/daily-bulletin.txt
or without bulletin text:
www.amsat.org/tle/dailytle.txt


AO-07
1 07530U 74089B   25325.53269882 -.00000046  00000-0  19443-5 0  9990
2 07530 101.9971 331.5769 0012255 166.4875   2.3750 12.53693539334497
UO-11
1 14781U 84021B   25325.43916434  .00001968  00000-0  20950-3 0  9990
2 14781  97.7782 288.8037 0008525 141.6751 218.5074 14.90037490226187
AO-27
1 22825U 93061C   25325.18132801  .00000163  00000-0  79189-4 0  9997
2 22825  98.7176  27.3945 0008228 358.2951   1.8202 14.30865474677254
FO-29
1 24278U 96046B   25325.25766383  .00000005  00000-0  44423-4 0  9991
2 24278  98.5477 197.2736 0348848 275.8392  80.3089 13.53261119445048
GO-32
1 25397U 98043D   25325.56279803  .00000095  00000-0  61168-4 0  9997
2 25397  98.9900 308.2880 0002317  91.8474 268.2970 14.24368530421779
ISS
1 25544U 98067A   25325.64155328  .00015369  00000-0  28690-3 0  9993
2 25544  51.6325 246.9042 0004003 153.4663 206.6531 15.48962915539589
NO-44
1 26931U 01043C   25325.57142187  .00000230  00000-0  11693-3 0  9999
2 26931  67.0518  61.2194 0007307 271.1065  88.9200 14.31837912260725
SO-50
1 27607U 02058C   25325.55394619  .00001805  00000-0  23424-3 0  9998
2 27607  64.5550  51.0715 0071002 300.5203  58.8906 14.82270522233671
CO-55
1 27844U 03031E   25325.51311958  .00000413  00000-0  19825-3 0  9998
2 27844  98.6766 331.6894 0010644  71.2505 288.9828 14.24153469162113
CO-57
1 27848U 03031J   25325.46935058  .00000337  00000-0  16737-3 0  9993
2 27848  98.6794 331.5253 0010629  87.3236 272.9159 14.23465321161827
RS-22
1 27939U 03042A   25325.72461519  .00001526  00000-0  24638-3 0  9991
2 27939  98.3366 139.3674 0010861 201.5097 250.1748 14.72882207185002
CO-58
1 28895U 05043F   25325.36685212  .00002307  00000-0  37719-3 0  9996
2 28895  98.2716 112.0869 0015034 141.7404 218.4872 14.71776682 71175
CO-65
1 32785U 08021C   25325.65466117  .00007209  00000-0  48936-3 0  9990
2 32785  97.8068 298.4528 0010406  25.9331 334.2415 15.06671690953917
CO-66
1 32791U 08021J   25325.50907946  .00020418  00000-0  83787-3 0  9991
2 32791  97.7427 309.9424 0002921   5.9211 354.2060 15.24262704955566
RS-30
1 32953U 08025A   25325.62520995  .00000022  00000-0  85675-4 0  9991
2 32953  82.4997 124.5559 0019677  46.5931 313.6783 12.43171136793900
SRMSAT
1 37841U 11058D   25325.04403844  .00000449  00000-0  10033-3 0  9999
2 37841  19.9714 239.2646 0011849  74.6888  36.1482 14.11501084728378
ZACUBE-1
1 39417U 13066B   25325.42987039  .00006926  00000-0  57017-3 0  9995
2 39417  97.8019 281.9490 0040720 217.8402 141.9956 14.98768837649588
Delfi-N3xt
1 39428U 13066N   25325.27423868  .00007945  00000-0  75427-3 0  9992
2 39428  97.8334 241.3127 0079599 175.6740 184.5184 14.91388306643592
GOMX-1
1 39430U 13066Q   25325.64307157  .00002115  00000-0  32807-3 0  9997
2 39430  97.6607 174.0878 0131449  24.2767 336.4557 14.68444955639440
LO-74
1 39440U 13066AA  25325.40950508  .00007287  00000-0  70608-3 0  9992
2 39440  97.8685 269.1171 0060255 357.6211   2.4711 14.91636631645993
AO-73
1 39444U 13066AE  25325.45549992  .00010050  00000-0  69163-3 0  9998
2 39444  97.8032 288.4843 0038793 186.8516 173.2185 15.05476333648368
DTUSAT-2
1 40030U 14033W   25325.41885319  .00010631  00000-0  63560-3 0  9998
2 40030  98.0743 305.6957 0006981 212.0869 147.9935 15.11249269621262
EO-80
1 40032U 14033Y   25325.49673562  .00010157  00000-0  60627-3 0  9997
2 40032  98.0620 305.2014 0008541 149.3981 210.7747 15.11312813621254
LILACSAT-2
1 40908U 15049K   25325.67694646  .00017328  00000-0  38323-3 0  9998
2 40908  97.4932 350.4227 0006357 291.5399  68.5171 15.43870734563654
IO-86
1 40931U 15052B   25151.18580175  .00001241  00000-0  78118-4 0  9996
2 40931   6.0006  24.0987 0012733 338.8432  21.1169 14.78805930523159
Horyu-4
1 41340U 16012D   25325.61720961  .00048901  00000-0  89141-3 0  9999
2 41340  30.9935  94.7215 0005749  22.8057 337.2846 15.48167048538272
Lapan A3
1 41603U 16040E   25325.65503882  .00004611  00000-0  15459-3 0  9998
2 41603  97.1422 323.9827 0012137  46.8153 313.4101 15.31318014523039
CAS-2T
1 41847U 16066G   25325.21387844  .00001253  00000-0  18468-3 0  9998
2 41847  98.4059  38.1640 0344804  40.3389 322.2837 14.44062219474772
TechnoSat
1 42829U 17042E   25325.42829253  .00003584  00000-0  26826-3 0  9998
2 42829  97.4032 126.5614 0020114  83.1966 277.1548 15.03175378455477
AO-91
1 43017U 17073E   25325.21949530  .00014236  00000-0  68041-3 0  9991
2 43017  97.4966 191.9116 0161940 324.9765  34.0896 15.08197601433999
S-Net D
1 43186U 18014G   25325.27624818  .00008141  00000-0  45178-3 0  9993
2 43186  97.5488 226.5431 0009696  28.4072 331.7687 15.13972582427271
S-Net B
1 43187U 18014H   25325.54834252  .00007464  00000-0  41474-3 0  9991
2 43187  97.5492 226.7922 0010216  22.5286 337.6392 15.13950187427316
S-Net A
1 43188U 18014J   25325.54041707  .00007298  00000-0  40526-3 0  9999
2 43188  97.5503 226.9575 0010101  23.5100 336.6591 15.13981089427310
S-Net C
1 43189U 18014K   25325.22076731  .00008017  00000-0  44519-3 0  9996
2 43189  97.5515 226.6822 0011381  16.2005 343.9588 15.13940810425817
Ten-Koh
1 43677U 18084G   25325.45605119  .00004084  00000-0  31967-3 0  9991
2 43677  98.0696 144.2228 0009259  84.3156 275.9122 15.01607999384978
PO-101
1 43678U 18084H   25325.63006720  .00002252  00000-0  18971-3 0  9990
2 43678  98.1035 148.2458 0007351  97.6336 262.5721 14.99285869385101
QO-100
1 43700U 18090A   25325.36572426  .00000166  00000-0  00000+0 0  9996
2 43700   0.0148 354.0302 0002461 287.7879 296.2722  1.00273236 25592
MinXSS-2
1 43758U 18099A   25325.16003781  .00023680  00000-0  74176-3 0  9994
2 43758  97.4833  32.2550 0009010 296.2373  63.7942 15.33054258382114
AO-95
1 43770U 18099N   25325.15580362  .00011050  00000-0  49795-3 0  9999
2 43770  97.4713  21.6080 0009875   7.9303 352.2087 15.21174734381534
SNUSat 2
1 43782U 18099AA  25325.10322491  .00009139  00000-0  45564-3 0  9999
2 43782  97.4387  16.8867 0010067 307.7774  52.2547 15.17722076381420
SnugLite
1 43784U 18099AC  25325.14836512  .00011476  00000-0  51192-3 0  9990
2 43784  97.4202  16.9041 0002127 323.8983  36.2108 15.21551382381624
ITASat 1
1 43786U 18099AE  25325.11181237  .00007031  00000-0  37275-3 0  9994
2 43786  97.4355  15.8791 0013530   3.6939 356.4391 15.15605849381351
EAGLET 1
1 43790U 18099AJ  25325.38032088  .00004931  00000-0  30014-3 0  9997
2 43790  97.4553  15.4690 0011219 351.0277   9.0751 15.10814746380934
ESEO
1 43792U 18099AL  25325.11727271  .00001675  00000-0  12747-3 0  9990
2 43792  97.4281   6.1827 0011007 331.1947  28.8669 15.03368581380537
JO-97
1 43803U 18099AX  25325.11580749  .00015601  00000-0  61066-3 0  9992
2 43803  97.4459  23.0157 0005359 292.4971  67.5700 15.25892285381815
Suomi 100
1 43804U 18099AY  25325.10383659  .00012312  00000-0  53269-3 0  9995
2 43804  97.4518  21.7432 0009893 296.8380  63.1844 15.22537680381691
ISAT
1 43879U 18111D   25325.30431451  .00043578  00000-0  10985-2 0  9993
2 43879  97.5906 244.1825 0006777   3.2111 356.9177 15.39729678378946
UWE-4
1 43880U 18111E   25325.23274080  .00029720  00000-0  93086-3 0  9997
2 43880  97.5849 241.1866 0010575   5.7872 354.3490 15.32996289378787
Sparrow
1 43881U 18111F   25325.31872395  .00049423  00000-0  11634-2 0  9990
2 43881  97.6085 247.8265 0007548  38.5435 321.6349 15.41771774379064
Prox-1
1 44339U 19036A   25325.53810825  .00016181  00000-0  18460-2 0  9999
2 44339  23.9970  55.0970 0007253 150.9207 209.1696 14.84410094342515
Taurus 1
1 44530U 19059C   25325.65433806  .00009247  00000-0  15963-2 0  9990
2 44530  98.6226 113.3551 0008965 239.1491 120.8831 14.68657618328140
Duchifat 3
1 44854U 19089C   25325.53542106  .00425523  00000-0  16231-2 0  9991
2 44854  36.9307   8.3768 0009005 133.1531 226.9992 15.85429396328754
TO-108
1 44881U 19093C   25325.69262453  .00001146  00000-0  13688-3 0  9992
2 44881  97.7783  37.7932 0014790  53.1833 307.0737 14.86033755320591
FloripaSat 1
1 44885U 19093G   25325.64552409  .00007336  00000-0  58043-3 0  9995
2 44885  97.8067  53.7435 0012048  40.9389 319.2737 15.00865733321481
RS-44
1 44909U 19096E   25325.51432823 -.00000005  00000-0 -57362-4 0  9990
2 44909  82.5189 117.7137 0216544 269.9162  87.7126 12.79745434275781
SALSAT
1 46495U 20068K   25325.54921907  .00009816  00000-0  38639-3 0  9994
2 46495  97.8767 311.6887 0009288 318.4349  41.6181 15.25816674283657
CSS (TIANHE-1)
1 48274U 21035A   25325.50649825  .00020743  00000-0  25839-3 0  9998
2 48274  41.4651 145.5210 0007663 210.6262 149.4129 15.59392583260713
TUBIN
1 48900U 21059X   25325.67170722  .00292169  34495-4  86462-3 0  9994
2 48900  97.6632 151.0365 0002108 330.3743  29.7411 15.92553269245957
CUTE
1 49263U 21088D   25325.31929095  .00031355  00000-0  43667-3 0  9994
2 49263  97.4371  47.2370 0005203   1.0191 359.1073 15.56877656229964
TeikyoSat 4
1 49396U 21102B   25325.57550899  .00003005  00000-0  19634-3 0  9996
2 49396  97.3925 357.9694 0010772 290.2065  69.8005 15.08504289221412
